| time (UTC) | temp F | wind direction | speed knots | gust knots | rain 1hr in | rain 24hr in | rain mn in | humidity % | barometer mb |
| 20260902213043 | 79 | 321 | 0.0 | 0.9 | 0.00 | 0.00 | 0.00 | 36 | 1016.7 |
| 20260902211545 | 79 | 298 | 0.0 | 0.0 | 0.00 | 0.00 | 0.00 | 36 | 1016.7 |
| 20260902210046 | 80 | 298 | 0.0 | 0.0 | 0.00 | 0.00 | 0.00 | 36 | 1016.6 |
| 20260902204542 | 81 | 298 | 0.0 | 0.0 | 0.00 | 0.00 | 0.00 | 34 | 1016.7 |
| 20260902203048 | 82 | 298 | 0.0 | 0.0 | 0.00 | 0.00 | 0.00 | 34 | 1016.6 |
| 20260902201544 | 82 | 321 | 0.0 | 2.6 | 0.00 | 0.00 | 0.00 | 33 | 1016.5 |
| 20260902200051 | 83 | 226 | 0.0 | 0.0 | 0.00 | 0.00 | 0.00 | 32 | 1016.4 |
| 20260902194538 | 84 | 226 | 0.0 | 0.9 | 0.00 | 0.00 | 0.00 | 30 | 1016.1 |
| 20260902193035 | 84 | 225 | 0.0 | 0.9 | 0.00 | 0.00 | 0.00 | 31 | 1015.8 |
| 20260902191546 | 86 | 222 | 0.0 | 0.9 | 0.00 | 0.00 | 0.00 | 29 | 1015.6 |
| 20260902190039 | 87 | 220 | 0.0 | 0.9 | 0.00 | 0.00 | 0.00 | 28 | 1015.4 |
| 20260902184545 | 89 | 220 | 0.0 | 1.7 | 0.00 | 0.00 | 0.00 | 27 | 1015.1 |
| 20260902183032 | 91 | 278 | 0.0 | 1.7 | 0.00 | 0.00 | 0.00 | 27 | 1015.0 |
| 20260902181530 | 92 | 262 | 0.9 | 5.2 | 0.00 | 0.00 | 0.00 | 25 | 1015.0 |
| 20260902180033 | 93 | 264 | 0.9 | 6.1 | 0.00 | 0.00 | 0.00 | 26 | 1015.0 |
| 20260902174528 | 94 | 260 | 0.9 | 5.2 | 0.00 | 0.00 | 0.00 | 25 | 1015.0 |
| 20260902173028 | 94 | 224 | 0.9 | 8.7 | 0.00 | 0.00 | 0.00 | 24 | 1014.9 |
| 20260902171629 | 95 | 204 | 0.9 | 6.1 | 0.00 | 0.00 | 0.00 | 22 | 1014.9 |
| 20260902170026 | 95 | 296 | 1.7 | 5.2 | 0.00 | 0.00 | 0.00 | 23 | 1015.0 |
| 20260902164525 | 95 | 264 | 2.6 | 7.0 | 0.00 | 0.00 | 0.00 | 22 | 1015.0 |
| 20260902163025 | 95 | 220 | 0.9 | 6.1 | 0.00 | 0.00 | 0.00 | 22 | 1015.1 |
| 20260902161523 | 96 | 251 | 1.7 | 6.1 | 0.00 | 0.00 | 0.00 | 22 | 1015.2 |
| 20260902160022 | 95 | 330 | 2.6 | 7.8 | 0.00 | 0.00 | 0.00 | 21 | 1015.3 |
| 20260902154526 | 95 | 297 | 2.6 | 7.0 | 0.00 | 0.00 | 0.00 | 22 | 1015.4 |
| 20260902153023 | 95 | 259 | 1.7 | 5.2 | 0.00 | 0.00 | 0.00 | 24 | 1015.3 |
| 20260902151518 | 95 | 216 | 1.7 | 8.7 | 0.00 | 0.00 | 0.00 | 24 | 1015.5 |
| 20260902150015 | 95 | 276 | 0.9 | 3.5 | 0.00 | 0.00 | 0.00 | 24 | 1015.4 |
| 20260902144519 | 95 | 103 | 0.9 | 6.1 | 0.00 | 0.00 | 0.00 | 24 | 1015.7 |
| 20260902143014 | 94 | 299 | 0.9 | 7.8 | 0.00 | 0.00 | 0.00 | 23 | 1015.7 |
| 20260902141511 | 94 | 277 | 2.6 | 7.8 | 0.00 | 0.00 | 0.00 | 25 | 1015.7 |
| 20260902140010 | 93 | 290 | 1.7 | 7.0 | 0.00 | 0.00 | 0.00 | 26 | 1016.0 |
| 20260902134510 | 94 | 68 | 0.9 | 4.3 | 0.00 | 0.00 | 0.00 | 28 | 1016.0 |
| 20260902133008 | 93 | 323 | 4.3 | 7.8 | 0.00 | 0.00 | 0.00 | 27 | 1016.1 |
| 20260902131504 | 93 | 233 | 1.7 | 4.3 | 0.00 | 0.00 | 0.00 | 25 | 1016.3 |
| 20260902130100 | 91 | 259 | 0.9 | 6.1 | 0.00 | 0.00 | 0.00 | 24 | 1016.2 |
| 20260902124658 | 91 | 276 | 2.6 | 7.8 | 0.00 | 0.00 | 0.00 | 26 | 1016.3 |
| 20260902123115 | 91 | 217 | 1.7 | 8.7 | 0.00 | 0.00 | 0.00 | 29 | 1016.5 |
| 20260902121558 | 90 | 227 | 1.7 | 11.3 | 0.00 | 0.00 | 0.00 | 28 | 1016.8 |
| 20260902120104 | 90 | 52 | 0.0 | 6.1 | 0.00 | 0.00 | 0.00 | 31 | 1017.0 |
| 20260902114546 | 89 | 117 | 0.9 | 4.3 | 0.00 | 0.00 | 0.00 | 32 | 1017.1 |
| 20260902113043 | 88 | 156 | 0.9 | 2.6 | 0.00 | 0.00 | 0.00 | 34 | 1017.3 |
| 20260902111551 | 87 | 259 | 0.0 | 1.7 | 0.00 | 0.00 | 0.00 | 34 | 1017.6 |
| 20260902110038 | 86 | 106 | 0.0 | 2.6 | 0.00 | 0.00 | 0.00 | 38 | 1017.8 |
| 20260902104536 | 85 | 138 | 0.9 | 3.5 | 0.00 | 0.00 | 0.00 | 40 | 1017.9 |
| 20260902103033 | 83 | 257 | 0.9 | 2.6 | 0.00 | 0.00 | 0.00 | 43 | 1017.9 |
| 20260902101535 | 82 | 146 | 0.9 | 3.5 | 0.00 | 0.00 | 0.00 | 43 | 1018.1 |
| 20260902100029 | 80 | 329 | 0.0 | 4.3 | 0.00 | 0.00 | 0.00 | 44 | 1018.0 |
| 20260902094528 | 80 | 313 | 0.9 | 1.7 | 0.00 | 0.00 | 0.00 | 43 | 1018.0 |
| 20260902093025 | 80 | 98 | 0.0 | 2.6 | 0.00 | 0.00 | 0.00 | 46 | 1017.9 |
| 20260902091524 | 79 | 94 | 0.0 | 1.7 | 0.00 | 0.00 | 0.00 | 48 | 1017.9 |
| 20260902090019 | 77 | 113 | 0.9 | 2.6 | 0.00 | 0.00 | 0.00 | 47 | 1017.8 |
| 20260902084517 | 76 | 258 | 0.0 | 3.5 | 0.00 | 0.00 | 0.00 | 50 | 1017.7 |
| 20260902083014 | 75 | 102 | 0.0 | 1.7 | 0.00 | 0.00 | 0.00 | 52 | 1017.6 |
| 20260902081512 | 74 | 63 | 0.0 | 3.5 | 0.00 | 0.00 | 0.00 | 51 | 1017.6 |
| 20260902080011 | 73 | 98 | 0.0 | 2.6 | 0.00 | 0.00 | 0.00 | 47 | 1017.6 |
| 20260902074510 | 72 | 98 | 0.0 | 0.9 | 0.00 | 0.00 | 0.00 | 46 | 1017.5 |
| 20260902073008 | 70 | 97 | 0.9 | 2.6 | 0.00 | 0.00 | 0.00 | 46 | 1017.4 |
| 20260902071511 | 69 | 121 | 0.0 | 1.7 | 0.00 | 0.00 | 0.00 | 46 | 1017.3 |
| 20260902070006 | 66 | 87 | 0.0 | 1.7 | 0.00 | 0.00 | 0.00 | 51 | 1017.0 |
| 20260902064503 | 66 | 90 | 0.0 | 0.9 | 0.00 | 0.00 | 0.00 | 50 | 1016.8 |
| 20260902063002 | 66 | 109 | 0.0 | 0.9 | 0.00 | 0.00 | 0.00 | 50 | 1016.7 |
| 20260902061558 | 0 | 0.0 | 0.0 | 0.00 | 0.00 | 0.00 | 1016.5 | ||
| 20260902060053 | 0 | 0.0 | 0.0 | 0.00 | 0.00 | 0.00 | 1016.4 | ||
| 20260902054550 | 0 | 0.0 | 0.0 | 0.00 | 0.00 | 0.00 | 1016.4 | ||
| 20260902053045 | 0 | 0.0 | 0.0 | 0.00 | 0.00 | 0.00 | 1016.3 | ||
| 20260902051545 | 0 | 5 | 0.0 | 0.0 | 0.00 | 0.00 | 0.00 | 1016.1 | |
| 20260902050056 | 62 | 7 | 0.0 | 0.0 | 0.00 | 0.00 | 0.00 | 51 | 1015.8 |
| 20260902044539 | 63 | 7 | 0.0 | 0.0 | 0.00 | 0.00 | 0.00 | 51 | 1015.5 |
| 20260902043044 | 63 | 7 | 0.0 | 0.9 | 0.00 | 0.00 | 0.00 | 52 | 1015.6 |
| 20260902041536 | 62 | 236 | 0.0 | 0.0 | 0.00 | 0.00 | 0.00 | 53 | 1015.6 |
| 20260902040035 | 63 | 228 | 0.0 | 0.0 | 0.00 | 0.00 | 0.00 | 51 | 1015.6 |
| 20260902034529 | 64 | 228 | 0.0 | 0.0 | 0.00 | 0.00 | 0.00 | 50 | 1015.6 |
| 20260902033027 | 66 | 228 | 0.0 | 0.9 | 0.00 | 0.00 | 0.00 | 46 | 1015.7 |
| 20260902031524 | 66 | 162 | 0.0 | 0.9 | 0.00 | 0.00 | 0.00 | 46 | 1015.7 |
| 20260902030020 | 68 | 165 | 0.0 | 1.7 | 0.00 | 0.00 | 0.00 | 44 | 1015.5 |
| 20260902024520 | 68 | 155 | 0.0 | 0.0 | 0.00 | 0.00 | 0.00 | 43 | 1015.4 |
| 20260902023019 | 68 | 49 | 0.0 | 0.0 | 0.00 | 0.00 | 0.00 | 43 | 1015.2 |
| 20260902021518 | 69 | 49 | 0.0 | 0.0 | 0.00 | 0.00 | 0.00 | 42 | 1015.2 |
| 20260902020017 | 69 | 49 | 0.0 | 0.0 | 0.00 | 0.00 | 0.00 | 41 | 1015.3 |
| 20260902014518 | 70 | 49 | 0.0 | 0.0 | 0.00 | 0.00 | 0.00 | 40 | 1015.2 |
| 20260902013016 | 69 | 49 | 0.0 | 0.0 | 0.00 | 0.00 | 0.00 | 41 | 1015.2 |
| 20260902011517 | 69 | 49 | 0.0 | 0.0 | 0.00 | 0.00 | 0.00 | 40 | 1015.2 |
| 20260902010012 | 69 | 49 | 0.0 | 1.7 | 0.00 | 0.00 | 0.00 | 40 | 1015.3 |
| 20260902004513 | 69 | 60 | 0.0 | 0.0 | 0.00 | 0.00 | 0.00 | 40 | 1015.3 |
| 20260902003021 | 69 | 76 | 0.0 | 0.0 | 0.00 | 0.00 | 0.00 | 40 | 1015.4 |
| 20260902001511 | 67 | 76 | 0.0 | 0.9 | 0.00 | 0.00 | 0.00 | 44 | 1015.3 |
| 20260902000008 | 68 | 123 | 0.0 | 0.9 | 0.00 | 0.00 | 0.00 | 43 | 1015.3 |
| 20260901234506 | 71 | 123 | 0.0 | 2.6 | 0.00 | 0.00 | 0.00 | 39 | 1015.4 |
| 20260901233004 | 69 | 224 | 0.0 | 0.0 | 0.00 | 0.00 | 0.00 | 42 | 1015.3 |
| 20260901231504 | 70 | 224 | 0.0 | 0.9 | 0.00 | 0.00 | 0.00 | 43 | 1015.1 |
| 20260901230107 | 70 | 224 | 0.0 | 0.9 | 0.00 | 0.00 | 0.00 | 41 | 1015.1 |
| 20260901230001 | 70 | 224 | 0.0 | 0.9 | 0.00 | 0.00 | 0.00 | 41 | 1015.1 |
| 20260901224658 | 71 | 224 | 0.0 | 0.9 | 0.00 | 0.00 | 0.00 | 40 | 1014.9 |
| 20260901223104 | 72 | 206 | 0.0 | 0.0 | 0.00 | 0.00 | 0.00 | 37 | 1014.7 |
| 20260901221551 | 73 | 194 | 0.0 | 0.0 | 0.00 | 0.00 | 0.00 | 36 | 1014.7 |
| 20260901220106 | 75 | 260 | 0.0 | 0.0 | 0.00 | 0.00 | 0.00 | 35 | 1014.6 |
| 20260901214547 | 76 | 260 | 0.0 | 0.0 | 0.00 | 0.00 | 0.00 | 33 | 1014.5 |